TimeCST,TemperatureF,Dew PointF,Humidity,Sea Level PressureIn,VisibilityMPH,Wind Direction,Wind SpeedMPH,Gust SpeedMPH,PrecipitationIn,Events,Conditions,WindDirDegrees,DateUTC
12:54 AM,59.0,51.1,75,29.69,10.0,South,11.5,-,N/A,,Overcast,170,2012-11-11 06:54:00
1:54 AM,60.1,48.0,64,29.69,10.0,South,13.8,-,N/A,,Overcast,170,2012-11-11 07:54:00
2:54 AM,61.0,46.0,58,29.70,10.0,South,18.4,24.2,N/A,,Overcast,180,2012-11-11 08:54:00
3:54 AM,60.1,48.0,64,29.71,10.0,South,15.0,-,N/A,,Overcast,180,2012-11-11 09:54:00
4:54 AM,57.9,46.9,67,29.71,10.0,South,13.8,-,N/A,,Mostly Cloudy,180,2012-11-11 10:54:00
5:54 AM,59.0,48.0,67,29.70,10.0,South,12.7,20.7,N/A,,Overcast,180,2012-11-11 11:54:00
6:54 AM,57.0,51.1,81,29.69,9.0,South,10.4,-,0.01,Rain,Light Rain,190,2012-11-11 12:54:00
8:54 AM,57.0,52.0,83,29.68,10.0,South,11.5,19.6,0.00,,Mostly Cloudy,180,2012-11-11 14:54:00
9:08 AM,57.2,51.8,82,29.67,10.0,South,13.8,-,N/A,,Overcast,170,2012-11-11 15:08:00
9:54 AM,57.0,52.0,83,29.69,10.0,South,11.5,-,0.00,Rain,Light Rain,170,2012-11-11 15:54:00
10:54 AM,57.0,52.0,83,29.66,5.0,South,8.1,-,0.01,Rain,Light Rain,170,2012-11-11 16:54:00
11:33 AM,55.4,53.6,94,29.64,2.0,South,9.2,-,0.08,Rain,Rain,170,2012-11-11 17:33:00
11:46 AM,55.4,53.6,94,29.63,2.5,SSW,10.4,18.4,0.14,Rain,Rain,200,2012-11-11 17:46:00
11:48 AM,55.4,53.6,94,29.63,2.5,SSW,10.4,-,0.15,Rain,Rain,210,2012-11-11 17:48:00
12:11 PM,55.4,53.6,94,29.62,2.5,South,9.2,23.0,0.05,Rain,Rain,180,2012-11-11 18:11:00
12:30 PM,53.6,53.6,100,29.60,3.0,South,8.1,-,0.11,Rain,Light Rain,170,2012-11-11 18:30:00
12:54 PM,55.0,54.0,96,29.62,2.5,South,8.1,-,0.17,Rain,Light Rain,170,2012-11-11 18:54:00
1:02 PM,55.4,53.6,94,29.60,4.0,South,12.7,-,0.01,Rain,Light Rain,180,2012-11-11 19:02:00
1:15 PM,51.8,48.2,88,29.61,1.8,WNW,13.8,18.4,0.08,Rain,Rain,290,2012-11-11 19:15:00
1:25 PM,50.0,48.2,94,29.61,2.0,WNW,10.4,-,0.14,Rain,Rain,290,2012-11-11 19:25:00
1:35 PM,50.0,48.2,94,29.60,4.0,WNW,6.9,-,0.15,Rain,Light Rain,290,2012-11-11 19:35:00
1:45 PM,50.0,48.2,94,29.60,8.0,WNW,5.8,-,0.16,Rain,Light Rain,300,2012-11-11 19:45:00
1:54 PM,50.0,48.0,93,29.63,8.0,West,5.8,-,0.17,Rain,Light Rain,270,2012-11-11 19:54:00
2:54 PM,48.0,45.0,89,29.65,4.0,West,11.5,-,0.10,Rain,Light Rain,260,2012-11-11 20:54:00
3:42 PM,46.4,44.6,93,29.62,7.0,SW,3.5,-,0.05,Rain,Light Rain,220,2012-11-11 21:42:00
3:52 PM,46.4,44.6,93,29.62,5.0,Calm,Calm,-,0.06,Rain,Light Rain,0,2012-11-11 21:52:00
3:54 PM,46.0,44.1,93,29.63,4.0,Calm,Calm,-,0.06,Rain,Light Rain,0,2012-11-11 21:54:00
4:54 PM,43.0,41.0,93,29.65,10.0,West,10.4,-,0.08,Rain,Light Rain,280,2012-11-11 22:54:00
5:08 PM,42.8,39.2,87,29.64,8.0,West,9.2,-,0.01,Rain,Light Rain,260,2012-11-11 23:08:00
5:54 PM,39.0,37.0,93,29.72,9.0,West,15.0,21.9,0.07,Rain,Light Rain,260,2012-11-11 23:54:00
6:11 PM,37.4,35.6,93,29.69,10.0,West,13.8,21.9,0.00,Rain,Light Rain,270,2012-11-12 00:11:00
6:54 PM,36.0,35.1,97,29.73,10.0,West,15.0,-,0.01,,Overcast,260,2012-11-12 00:54:00
7:54 PM,34.0,30.9,89,29.77,9.0,West,15.0,-,N/A,,Overcast,280,2012-11-12 01:54:00
8:54 PM,32.0,30.9,96,29.79,8.0,West,16.1,26.5,N/A,,Overcast,270,2012-11-12 02:54:00
9:49 PM,30.2,30.2,100,29.81,9.0,West,19.6,23.0,N/A,,Overcast,270,2012-11-12 03:49:00
9:54 PM,30.9,30.0,96,29.84,8.0,West,13.8,23.0,N/A,,Overcast,270,2012-11-12 03:54:00
10:54 PM,28.0,24.1,85,29.83,10.0,West,18.4,-,N/A,,Overcast,270,2012-11-12 04:54:00
11:54 PM,27.0,21.0,78,29.87,10.0,West,15.0,21.9,N/A,,Overcast,270,2012-11-12 05:54:00